{"data":{"norad_id":57377,"intl_designator":"2023-099BB","name":"STARLINK-6358","alt_names":[],"object_type":"PAYLOAD","status":"ACTIVE","operator":null,"country":"US","launch_date":"2023-07-16","launch_site_code":"AFETR","launch_vehicle":null,"mission":null,"orbit_class":"UNKNOWN","rcs_meters":null,"size_class":null,"mass_kg":null,"dimensions":null,"purposes":["comms"],"wikipedia_slug":null,"has_3d_model":false,"image_url":null,"decayed_at":null,"tle_current":{"epoch":"2026-09-20T07:54:16.259904Z","epoch_age_seconds":139068,"freshness":"FRESH","line1":"1 57377U 23099BB  26263.32935486 -.00000094  00000+0  60841-5 0  9998","line2":"2 57377  43.0010 226.1600 0000683 249.5719 110.5059 15.27574881175912","mean_motion":15.27574881,"eccentricity":6.83e-5,"inclination_deg":43.001,"raan_deg":226.16,"arg_perigee_deg":249.5719,"mean_anomaly_deg":110.5059,"bstar":6.0841e-6,"rev_number":17591,"period_min":94.267064607486,"perigee_km":482.59580415273,"apogee_km":483.53304426728,"semimajor_km":6861.20142421,"source":"CELESTRAK","updated_at":"2026-09-21T09:00:33.621801Z"}}}